EW2460 Richmond RI US current weather conditions

sailwx.info

Wind from 269

Air temperature 16.7° C
Dewpoint 16.2° C

Last reported at 2020-Jul-02 05:45 UTC.
Time now 2020-Jul-02 06:23 UTC

Location: N 41°31' W 071°38'.
View on Google Maps.

See reports from other nearby stations

  
Tides and Currents Weather Stations Pressure Air Temp Water Temp Dewpoint Dewpoint Depression Visibility Wind Speed Wind Dir Waves Ship Positions
date/time (UTC)wind fromknots sea level pressurealtimeterstation pressurevisibilityair tempwater tempwave heightnotes
2020-Jul-02 05:45 269 16.7
2020-Jul-02 05:34 269 16.7
2020-Jul-02 05:24 269 16.7
2020-Jul-02 05:14 269 16.7
2020-Jul-02 04:34 269 17.2
2020-Jul-02 04:24 269 17.8
2020-Jul-02 04:14 269 17.8
2020-Jul-02 03:44 269 17.8
2020-Jul-02 03:24 269 18.3
2020-Jul-02 03:04 265 18.3
2020-Jul-02 02:55 359 18.3
2020-Jul-02 02:44 338 18.9
2020-Jul-02 02:34 358 18.9
2020-Jul-02 01:54 257 18.3
2020-Jul-02 01:44 257 18.3
2020-Jul-02 01:24 257 18.3
2020-Jul-02 01:14 257 18.9
2020-Jul-02 00:44 257 18.9
2020-Jul-02 00:14 257 19.4
2020-Jul-01 23:44 257 19.4
2020-Jul-01 23:34 257 19.4
2020-Jul-01 22:54 221 20.0
2020-Jul-01 22:44 200 20.0
2020-Jul-01 22:34 218 20.0
2020-Jul-01 22:25 259 20.0
2020-Jul-01 22:14 235 20.0
2020-Jul-01 22:03 235 19.4
2020-Jul-01 21:55 235 19.4
2020-Jul-01 21:44 235 18.9
2020-Jul-01 21:24 235 18.3
2020-Jul-01 21:04 225 18.3
2020-Jul-01 20:55 225 18.9
2020-Jul-01 20:24 225 19.4
2020-Jul-01 20:14 110 19.4
2020-Jul-01 19:54 349 1 21.7
2020-Jul-01 19:24 191 22.2
2020-Jul-01 18:54 176 23.3
2020-Jul-01 17:54 112 25.6
2020-Jul-01 17:44 163 0 26.1
2020-Jul-01 17:34 328 1 26.1
2020-Jul-01 17:24 335 25.0
2020-Jul-01 16:54 269 0 23.3
2020-Jul-01 16:34 150 23.3
2020-Jul-01 16:24 167 23.9
2020-Jul-01 16:04 255 23.3
2020-Jul-01 15:34 285 23.3
2020-Jul-01 14:54 230 24.4
2020-Jul-01 14:44 136 24.4
2020-Jul-01 14:34 244 24.4
2020-Jul-01 14:05 252 23.9
2020-Jul-01 13:54 017 1 23.3
2020-Jul-01 13:35 309 23.3
2020-Jul-01 13:25 246 22.8
2020-Jul-01 13:14 246 22.8
2020-Jul-01 13:04 250 22.8
2020-Jul-01 12:54 001 22.2
2020-Jul-01 12:44 002 0 22.2
2020-Jul-01 12:24 318 21.7
2020-Jul-01 12:14 337 21.7
2020-Jul-01 11:54 265 21.7
2020-Jul-01 10:44 324 17.8
2020-Jul-01 10:25 001 17.2
2020-Jul-01 09:54 001 16.1
2020-Jul-01 09:44 001 16.1
2020-Jul-01 09:14 001 16.7
2020-Jul-01 08:34 001 16.7
2020-Jul-01 07:55 001 16.7
2020-Jul-01 07:34 001 16.7
2020-Jul-01 07:24 001 16.1
2020-Jul-01 06:45 001 16.1
2020-Jul-01 06:34 001 16.1
2020-Jul-01 06:24 001 15.6
2020-Jul-01 06:14 001 15.6
2020-Jul-01 05:35 001 15.6
2020-Jul-01 05:24 001 15.6
2020-Jul-01 05:04 001 15.6
2020-Jul-01 04:44 001 16.1
2020-Jul-01 04:24 001 16.7
2020-Jul-01 03:55 001 16.7
2020-Jul-01 03:34 001 17.2
2020-Jul-01 03:24 001 17.2
2020-Jul-01 02:34 001 17.8
2020-Jul-01 02:14 001 17.8
2020-Jul-01 02:04 001 18.3
2020-Jul-01 01:45 001 18.3
2020-Jul-01 01:34 001 18.9
2020-Jul-01 01:14 001 18.9
2020-Jul-01 01:04 001 18.9
2020-Jul-01 00:34 001 18.9
2020-Jul-01 00:04 133 19.4
2020-Jun-30 23:44 133 19.4
2020-Jun-30 23:34 079 20.0
2020-Jun-30 22:54 333 20.6
2020-Jun-30 22:35 333 21.1
2020-Jun-30 22:25 334 0 21.1
2020-Jun-30 22:14 233 21.1
2020-Jun-30 22:04 277 21.7
2020-Jun-30 21:54 221 0 22.2
2020-Jun-30 21:35 221 22.8
2020-Jun-30 21:24 214 22.8
2020-Jun-30 21:04 280 21.7
2020-Jun-30 20:54 280 21.1
2020-Jun-30 20:45 280 20.6
2020-Jun-30 20:34 280 20.6
2020-Jun-30 20:25 139 20.0
2020-Jun-30 20:13 210 20.0
2020-Jun-30 20:04 237 20.0
2020-Jun-30 19:44 238 20.0
2020-Jun-30 19:34 243 20.0
2020-Jun-30 18:35 001 0 22.8
2020-Jun-30 18:25 112 0 22.2
2020-Jun-30 18:05 101 22.2
2020-Jun-30 17:55 178 2 22.2
2020-Jun-30 17:44 071 22.2
2020-Jun-30 17:24 093 0 22.2
2020-Jun-30 17:14 131 22.2
2020-Jun-30 16:44 105 0 21.7
2020-Jun-30 16:34 079 21.7
2020-Jun-30 16:14 123 0 21.1
2020-Jun-30 15:55 088 21.1
2020-Jun-30 15:44 054 21.1
2020-Jun-30 15:35 001 20.6
2020-Jun-30 15:25 102 20.0
2020-Jun-30 15:04 102 20.0
2020-Jun-30 14:44 095 20.0
2020-Jun-30 14:24 095 20.0
2020-Jun-30 14:04 115 1 19.4
2020-Jun-30 13:44 072 18.9
2020-Jun-30 12:54 089 18.9
2020-Jun-30 12:44 092 18.3
2020-Jun-30 12:34 091 18.3
2020-Jun-30 12:24 096 18.3
2020-Jun-30 12:04 096 18.3
2020-Jun-30 11:54 082 18.3
2020-Jun-30 11:44 087 18.3
2020-Jun-30 11:34 067 17.8
2020-Jun-30 11:24 044 17.8
2020-Jun-30 11:14 068 17.8
2020-Jun-30 10:44 065 17.8
2020-Jun-30 10:34 065 17.8
2020-Jun-30 09:55 065 17.2
2020-Jun-30 09:24 065 17.2
2020-Jun-30 09:14 065 17.2
2020-Jun-30 08:44 065 17.2
2020-Jun-30 08:35 065 17.2
2020-Jun-30 08:23 061 17.2
2020-Jun-30 08:15 071 17.2
2020-Jun-30 07:54 071 17.2
2020-Jun-30 07:44 071 17.2
2020-Jun-30 07:34 071 17.2
2020-Jun-30 07:24 071 17.2
2020-Jun-30 06:54 071 17.2
2020-Jun-30 06:44 071 16.7
2020-Jun-30 06:34 071 16.7
2020-Jun-30 06:25 071 17.2
2020-Jun-30 06:14 071 17.2
2020-Jun-30 06:04 071 17.2